,,,PA_Meas_PMT16A,,PR_Meas_QMR101_102,,RH_Meas_QMH101,,SR_Meas_QMS101,,TA_Meas_QMH101,,GenWind,,GenWind,
date,time,status,PA,status,PR,status,RH,status,SR,status,TA,status,DirAvg,status,SpdAvg,
2013-02-21, 00:00:04,VALID,1008.43,VALID,0,VALID,104,VALID,0,VALID,24.3371,VALID,8,VALID,0,
2013-02-21, 00:01:04,VALID,1008.45,VALID,0,VALID,104,VALID,0,VALID,24.3352,VALID,9,VALID,0,
2013-02-21, 00:02:04,VALID,1008.45,VALID,0,VALID,104,VALID,0,VALID,24.3566,VALID,9,VALID,0,
2013-02-21, 00:03:04,VALID,1008.48,VALID,0,VALID,104,VALID,0,VALID,24.3584,VALID,8,VALID,0.0765625,
2013-02-21, 00:04:04,VALID,1008.44,VALID,0,VALID,104,VALID,0,VALID,24.3371,VALID,8,VALID,0,
2013-02-21, 00:05:04,VALID,1008.44,VALID,0,VALID,104,VALID,0,VALID,24.3158,VALID,8,VALID,0,
2013-02-21, 00:06:04,VALID,1008.43,VALID,0,VALID,104,VALID,0,VALID,24.3158,VALID,8,VALID,0,
2013-02-21, 00:07:04,VALID,1008.39,VALID,0,VALID,104,VALID,0,VALID,24.3371,VALID,8,VALID,0,
2013-02-21, 00:08:04,VALID,1008.39,VALID,0,VALID,104,VALID,0,VALID,24.3566,VALID,8,VALID,0.0398437,
2013-02-21, 00:09:04,VALID,1008.38,VALID,0,VALID,104,VALID,0,VALID,24.3742,VALID,8,VALID,0.183203,
2013-02-21, 00:10:04,VALID,1008.37,VALID,0,VALID,104,VALID,0,VALID,24.415,VALID,8,VALID,0.09375,
2013-02-21, 00:11:04,VALID,1008.31,VALID,0,VALID,104,VALID,0,VALID,24.4345,VALID,8,VALID,0,
2013-02-21, 00:12:04,VALID,1008.33,VALID,0,VALID,104,VALID,0,VALID,24.4345,VALID,9,VALID,0,
2013-02-21, 00:13:04,VALID,1008.31,VALID,0,VALID,104,VALID,0,VALID,24.3937,VALID,8,VALID,0,
2013-02-21, 00:14:04,VALID,1008.28,VALID,0,VALID,104,VALID,0,VALID,24.3956,VALID,8,VALID,0,
2013-02-21, 00:15:04,VALID,1008.26,VALID,0,VALID,104,VALID,0,VALID,24.3956,VALID,8,VALID,0,
2013-02-21, 00:16:04,VALID,1008.25,VALID,0,VALID,104,VALID,0,VALID,24.4169,VALID,8,VALID,0,
2013-02-21, 00:17:04,VALID,1008.24,VALID,0,VALID,104,VALID,0,VALID,24.3761,VALID,9,VALID,0,
2013-02-21, 00:18:04,VALID,1008.18,VALID,0,VALID,104,VALID,0.112112,VALID,24.3566,VALID,8,VALID,0,
2013-02-21, 00:19:04,VALID,1008.19,VALID,0,VALID,104,VALID,0,VALID,24.3566,VALID,8,VALID,0,
2013-02-21, 00:20:04,VALID,1008.19,VALID,0,VALID,104,VALID,0,VALID,24.3176,VALID,8,VALID,0,
2013-02-21, 00:21:04,VALID,1008.2,VALID,0,VALID,104,VALID,0,VALID,24.3371,VALID,8,VALID,0.0347656,
2013-02-21, 00:22:04,VALID,1008.22,VALID,0,VALID,104,VALID,0,VALID,24.2981,VALID,8,VALID,0.230859,
2013-02-21, 00:23:04,VALID,1008.21,VALID,0,VALID,104,VALID,0,VALID,24.2981,VALID,9,VALID,0.241797,
2013-02-21, 00:24:04,VALID,1008.23,VALID,0,VALID,104,VALID,0,VALID,24.2786,VALID,9,VALID,0.191797,
2013-02-21, 00:25:04,VALID,1008.22,VALID,0,VALID,104,VALID,0,VALID,24.2786,VALID,8,VALID,0.109766,
2013-02-21, 00:26:04,VALID,1008.19,VALID,0,VALID,104,VALID,0,VALID,24.2591,VALID,9,VALID,0,
2013-02-21, 00:27:04,VALID,1008.23,VALID,0,VALID,104,VALID,0,VALID,24.2591,VALID,8,VALID,0,
2013-02-21, 00:28:04,VALID,1008.22,VALID,0,VALID,104,VALID,0,VALID,24.2591,VALID,8,VALID,0,
2013-02-21, 00:29:04,VALID,1008.22,VALID,0,VALID,104,VALID,0,VALID,24.2396,VALID,8,VALID,0,
2013-02-21, 00:30:04,VALID,1008.15,VALID,0,VALID,104,VALID,0,VALID,24.2202,VALID,8,VALID,0,
2013-02-21, 00:31:04,VALID,1008.16,VALID,0,VALID,104,VALID,0,VALID,24.2202,VALID,8,VALID,0,
2013-02-21, 00:32:04,VALID,1008.15,VALID,0,VALID,104,VALID,0,VALID,24.2007,VALID,8,VALID,0,
2013-02-21, 00:33:04,VALID,1008.14,VALID,0,VALID,104,VALID,0,VALID,24.1812,VALID,8,VALID,0,
2013-02-21, 00:34:04,VALID,1008.1,VALID,0,VALID,104,VALID,0,VALID,24.1812,VALID,8,VALID,0,
2013-02-21, 00:35:04,VALID,1008.08,VALID,0,VALID,104,VALID,0,VALID,24.183,VALID,8,VALID,0,
2013-02-21, 00:36:04,VALID,1008.07,VALID,0,VALID,104,VALID,0,VALID,24.1617,VALID,8,VALID,0,
2013-02-21, 00:37:04,VALID,1008.07,VALID,0,VALID,104,VALID,0,VALID,24.1422,VALID,8,VALID,0,
2013-02-21, 00:38:04,VALID,1008.04,VALID,0,VALID,104,VALID,0,VALID,24.1635,VALID,8,VALID,0,
2013-02-21, 00:39:04,VALID,1008.03,VALID,0,VALID,104,VALID,0,VALID,24.1617,VALID,8,VALID,0,
2013-02-21, 00:40:04,VALID,1007.98,VALID,0,VALID,104,VALID,0,VALID,24.1422,VALID,9,VALID,0,
2013-02-21, 00:41:04,VALID,1007.98,VALID,0,VALID,104,VALID,0,VALID,24.1422,VALID,8,VALID,0,
2013-02-21, 00:42:04,VALID,1007.99,VALID,0,VALID,104,VALID,0,VALID,24.1227,VALID,8,VALID,0,
2013-02-21, 00:43:04,VALID,1007.99,VALID,0,VALID,104,VALID,0,VALID,24.144,VALID,8,VALID,0,
2013-02-21, 00:44:04,VALID,1008,VALID,0,VALID,104,VALID,0,VALID,24.1014,VALID,8,VALID,0,
2013-02-21, 00:45:04,VALID,1008.04,VALID,0,VALID,104,VALID,0,VALID,24.1422,VALID,8,VALID,0,
2013-02-21, 00:46:04,VALID,1008.04,VALID,0,VALID,104,VALID,0,VALID,24.183,VALID,8,VALID,0,
2013-02-21, 00:47:04,VALID,1008.01,VALID,0,VALID,104,VALID,0,VALID,24.1812,VALID,9,VALID,0,
2013-02-21, 00:48:04,VALID,1008,VALID,0,VALID,104,VALID,0,VALID,24.2396,VALID,8,VALID,0,
2013-02-21, 00:49:04,VALID,1007.99,VALID,0,VALID,104,VALID,0.112112,VALID,24.2573,VALID,8,VALID,0,
2013-02-21, 00:50:04,VALID,1007.98,VALID,0,VALID,104,VALID,0.112112,VALID,24.2981,VALID,8,VALID,0,
2013-02-21, 00:51:04,VALID,1007.95,VALID,0,VALID,104,VALID,0,VALID,24.2768,VALID,8,VALID,0.0191406,
2013-02-21, 00:52:04,VALID,1007.97,VALID,0,VALID,104,VALID,0,VALID,24.3158,VALID,8,VALID,0.144141,
2013-02-21, 00:53:04,VALID,1007.92,VALID,0,VALID,104,VALID,0,VALID,24.3566,VALID,9,VALID,0.0808594,
2013-02-21, 00:54:04,VALID,1007.93,VALID,0,VALID,104,VALID,0.112112,VALID,24.3566,VALID,8,VALID,0,
2013-02-21, 00:55:04,VALID,1007.92,VALID,0,VALID,104,VALID,0.112112,VALID,24.3352,VALID,8,VALID,0,
2013-02-21, 00:56:04,VALID,1007.92,VALID,0,VALID,104,VALID,0,VALID,24.3352,VALID,8,VALID,0,
2013-02-21, 00:57:04,VALID,1007.89,VALID,0,VALID,104,VALID,0,VALID,24.2963,VALID,8,VALID,0,
2013-02-21, 00:58:04,VALID,1007.88,VALID,0,VALID,104,VALID,0.112112,VALID,24.3352,VALID,8,VALID,0.282422,
2013-02-21, 00:59:04,VALID,1007.91,VALID,0,VALID,104,VALID,0.112112,VALID,24.3352,VALID,8,VALID,0.166797,
2013-02-21, 01:00:04,VALID,1007.89,VALID,0,VALID,104,VALID,0,VALID,24.3352,VALID,8,VALID,0.0945313,
2013-02-21, 01:01:04,VALID,1007.89,VALID,0,VALID,104,VALID,0.112112,VALID,24.3158,VALID,8,VALID,0,
2013-02-21, 01:02:04,VALID,1007.88,VALID,0,VALID,104,VALID,0,VALID,24.3158,VALID,8,VALID,0.25625,
2013-02-21, 01:03:04,VALID,1007.86,VALID,0,VALID,104,VALID,0,VALID,24.3176,VALID,8,VALID,0.231641,
2013-02-21, 01:04:04,VALID,1007.85,VALID,0,VALID,104,VALID,0,VALID,24.3389,VALID,8,VALID,0.152734,
2013-02-21, 01:05:04,VALID,1007.84,VALID,0,VALID,104,VALID,0,VALID,24.3176,VALID,8,VALID,0,
2013-02-21, 01:06:04,VALID,1007.86,VALID,0,VALID,104,VALID,0,VALID,24.3389,VALID,8,VALID,0.00507812,
2013-02-21, 01:07:04,VALID,1007.83,VALID,0,VALID,104,VALID,0,VALID,24.3176,VALID,8,VALID,0,
2013-02-21, 01:08:04,VALID,1007.79,VALID,0,VALID,104,VALID,0,VALID,24.3371,VALID,8,VALID,0,
2013-02-21, 01:09:04,VALID,1007.8,VALID,0,VALID,104,VALID,0,VALID,24.3176,VALID,8,VALID,0,
2013-02-21, 01:10:04,VALID,1007.8,VALID,0,VALID,104,VALID,0,VALID,24.3371,VALID,8,VALID,0,
2013-02-21, 01:11:04,VALID,1007.78,VALID,0,VALID,104,VALID,0,VALID,24.3389,VALID,8,VALID,0,
2013-02-21, 01:12:04,VALID,1007.76,VALID,0,VALID,104,VALID,0,VALID,24.3176,VALID,8,VALID,0,
2013-02-21, 01:13:04,VALID,1007.75,VALID,0,VALID,104,VALID,0,VALID,24.3,VALID,8,VALID,0.0785156,
2013-02-21, 01:14:04,VALID,1007.71,VALID,0,VALID,104,VALID,0,VALID,24.2786,VALID,8,VALID,0.349609,
2013-02-21, 01:15:04,VALID,1007.7,VALID,0,VALID,104,VALID,0,VALID,24.261,VALID,8,VALID,0.296875,
2013-02-21, 01:16:04,VALID,1007.65,VALID,0,VALID,104,VALID,0,VALID,24.2202,VALID,8,VALID,0.0175781,
2013-02-21, 01:17:04,VALID,1007.59,VALID,0,VALID,104,VALID,0,VALID,24.1812,VALID,8,VALID,0,
2013-02-21, 01:18:04,VALID,1007.57,VALID,0,VALID,104,VALID,0,VALID,24.1812,VALID,8,VALID,0,
2013-02-21, 01:19:04,VALID,1007.58,VALID,0,VALID,104,VALID,0,VALID,24.1635,VALID,9,VALID,0.222266,
2013-02-21, 01:20:04,VALID,1007.55,VALID,0,VALID,104,VALID,0,VALID,24.1422,VALID,8,VALID,0,
2013-02-21, 01:21:04,VALID,1007.51,VALID,0,VALID,104,VALID,0,VALID,24.1032,VALID,8,VALID,0,
2013-02-21, 01:22:04,VALID,1007.52,VALID,0,VALID,104,VALID,0,VALID,24.0837,VALID,8,VALID,0,
2013-02-21, 01:23:04,VALID,1007.51,VALID,0,VALID,104,VALID,0,VALID,24.0643,VALID,9,VALID,0,
2013-02-21, 01:24:04,VALID,1007.5,VALID,0,VALID,104,VALID,0,VALID,24.0643,VALID,8,VALID,0,
2013-02-21, 01:25:04,VALID,1007.49,VALID,0,VALID,104,VALID,0,VALID,24.0643,VALID,8,VALID,0.116406,
2013-02-21, 01:26:04,VALID,1007.49,VALID,0,VALID,104,VALID,0,VALID,24.0643,VALID,8,VALID,0.387891,
2013-02-21, 01:27:04,VALID,1007.46,VALID,0,VALID,104,VALID,0,VALID,24.0643,VALID,8,VALID,0.24375,
2013-02-21, 01:28:04,VALID,1007.44,VALID,0,VALID,104,VALID,0,VALID,24.0448,VALID,8,VALID,0.028125,
2013-02-21, 01:29:04,VALID,1007.4,VALID,0,VALID,104,VALID,0,VALID,24.0448,VALID,8,VALID,0,
2013-02-21, 01:30:04,VALID,1007.39,VALID,0,VALID,104,VALID,0,VALID,24.0253,VALID,8,VALID,0,
2013-02-21, 01:31:04,VALID,1007.37,VALID,0,VALID,104,VALID,0,VALID,24.0058,VALID,8,VALID,0,
2013-02-21, 01:32:04,VALID,1007.35,VALID,0,VALID,104,VALID,0,VALID,23.9863,VALID,9,VALID,0,
2013-02-21, 01:33:04,VALID,1007.36,VALID,0,VALID,104,VALID,0,VALID,24.0058,VALID,8,VALID,0,
2013-02-21, 01:34:04,VALID,1007.35,VALID,0,VALID,104,VALID,0,VALID,24.0076,VALID,9,VALID,0,
2013-02-21, 01:35:04,VALID,1007.32,VALID,0,VALID,104,VALID,0,VALID,23.9863,VALID,8,VALID,0,
2013-02-21, 01:36:04,VALID,1007.33,VALID,0,VALID,104,VALID,0,VALID,23.9863,VALID,8,VALID,0,
2013-02-21, 01:37:04,VALID,1007.34,VALID,0,VALID,104,VALID,0,VALID,23.9668,VALID,8,VALID,0,
2013-02-21, 01:38:04,VALID,1007.35,VALID,0,VALID,104,VALID,0,VALID,23.9668,VALID,8,VALID,0,
2013-02-21, 01:39:04,VALID,1007.37,VALID,0,VALID,104,VALID,0,VALID,23.9863,VALID,8,VALID,0,
2013-02-21, 01:40:04,VALID,1007.35,VALID,0,VALID,104,VALID,0,VALID,23.9668,VALID,8,VALID,0,
2013-02-21, 01:41:04,VALID,1007.36,VALID,0,VALID,104,VALID,0,VALID,23.9881,VALID,8,VALID,0,
2013-02-21, 01:42:04,VALID,1007.36,VALID,0,VALID,104,VALID,0,VALID,23.9863,VALID,8,VALID,0,
2013-02-21, 01:43:04,VALID,1007.36,VALID,0,VALID,104,VALID,0,VALID,23.9668,VALID,8,VALID,0,
2013-02-21, 01:44:04,VALID,1007.36,VALID,0,VALID,104,VALID,0,VALID,23.9863,VALID,8,VALID,0,
2013-02-21, 01:45:04,VALID,1007.33,VALID,0,VALID,104,VALID,0,VALID,23.9863,VALID,8,VALID,0,
2013-02-21, 01:46:04,VALID,1007.3,VALID,0,VALID,104,VALID,0,VALID,23.9881,VALID,8,VALID,0,
2013-02-21, 01:47:04,VALID,1007.31,VALID,0,VALID,104,VALID,0,VALID,23.9668,VALID,8,VALID,0,
2013-02-21, 01:48:04,VALID,1007.29,VALID,0,VALID,104,VALID,0,VALID,23.9863,VALID,8,VALID,0,
2013-02-21, 01:49:04,VALID,1007.27,VALID,0,VALID,104,VALID,0,VALID,23.9668,VALID,8,VALID,0,
2013-02-21, 01:50:04,VALID,1007.28,VALID,0,VALID,104,VALID,0,VALID,23.9668,VALID,8,VALID,0,
2013-02-21, 01:51:04,VALID,1007.25,VALID,0,VALID,104,VALID,0,VALID,23.9668,VALID,8,VALID,0,
2013-02-21, 01:52:04,VALID,1007.28,VALID,0,VALID,104,VALID,0,VALID,23.9668,VALID,9,VALID,0,
2013-02-21, 01:53:04,VALID,1007.25,VALID,0,VALID,104,VALID,0,VALID,23.9863,VALID,8,VALID,0,
2013-02-21, 01:54:04,VALID,1007.21,VALID,0,VALID,104,VALID,0,VALID,24.0058,VALID,8,VALID,0,
2013-02-21, 01:55:04,VALID,1007.18,VALID,0,VALID,104,VALID,0,VALID,23.9863,VALID,8,VALID,0,
2013-02-21, 01:56:04,VALID,1007.15,VALID,0,VALID,104,VALID,0,VALID,23.9863,VALID,8,VALID,0.0890625,
2013-02-21, 01:57:04,VALID,1007.13,VALID,0,VALID,104,VALID,0,VALID,23.9473,VALID,9,VALID,0.438672,
2013-02-21, 01:58:04,VALID,1007.09,VALID,0,VALID,104,VALID,0,VALID,23.9084,VALID,8,VALID,0.378516,
2013-02-21, 01:59:04,VALID,1007.06,VALID,0,VALID,104,VALID,0,VALID,23.9084,VALID,8,VALID,0.410156,
2013-02-21, 02:00:04,VALID,1007.03,VALID,0,VALID,104,VALID,0,VALID,23.8889,VALID,8,VALID,0.562109,
2013-02-21, 02:01:04,VALID,1007.06,VALID,0,VALID,104,VALID,0,VALID,23.8889,VALID,8,VALID,0.186719,
2013-02-21, 02:02:04,VALID,1007.04,VALID,0,VALID,104,VALID,0,VALID,23.8694,VALID,8,VALID,0.225,
2013-02-21, 02:03:04,VALID,1007.02,VALID,0,VALID,104,VALID,0.112112,VALID,23.8676,VALID,9,VALID,0.364453,
2013-02-21, 02:04:04,VALID,1006.99,VALID,0,VALID,104,VALID,0,VALID,23.8481,VALID,8,VALID,0.571875,
2013-02-21, 02:05:04,VALID,1006.95,VALID,0,VALID,104,VALID,0.112112,VALID,23.8676,VALID,29,VALID,0.619922,
2013-02-21, 02:06:04,VALID,1006.96,VALID,0,VALID,104,VALID,0.112112,VALID,23.9278,VALID,36,VALID,0.855469,
2013-02-21, 02:07:04,VALID,1006.92,VALID,0,VALID,104,VALID,0.112112,VALID,23.926,VALID,58,VALID,0.522266,
2013-02-21, 02:08:04,VALID,1006.91,VALID,0,VALID,104,VALID,0.112112,VALID,23.965,VALID,58,VALID,0.778125,
2013-02-21, 02:09:04,VALID,1006.9,VALID,0,VALID,104,VALID,0.112112,VALID,23.965,VALID,58,VALID,0.475391,
2013-02-21, 02:10:04,VALID,1006.87,VALID,0,VALID,104,VALID,0.112112,VALID,24.004,VALID,57,VALID,0.167187,
2013-02-21, 02:11:04,VALID,1006.88,VALID,0,VALID,104,VALID,0.112112,VALID,23.9827,VALID,58,VALID,0.221875,
2013-02-21, 02:12:04,VALID,1006.88,VALID,0,VALID,104,VALID,0.112112,VALID,24.0235,VALID,58,VALID,0,
2013-02-21, 02:13:04,VALID,1006.87,VALID,0,VALID,104,VALID,0.112112,VALID,24.0235,VALID,58,VALID,0,
2013-02-21, 02:14:04,VALID,1006.86,VALID,0,VALID,104,VALID,0.112112,VALID,24.0235,VALID,57,VALID,0.132031,
2013-02-21, 02:15:04,VALID,1006.85,VALID,0,VALID,104,VALID,0,VALID,24.0429,VALID,57,VALID,0,
2013-02-21, 02:16:04,VALID,1006.81,VALID,0,VALID,104,VALID,0.112112,VALID,24.0624,VALID,58,VALID,0.153906,
2013-02-21, 02:17:04,VALID,1006.81,VALID,0,VALID,104,VALID,0.112112,VALID,24.0624,VALID,58,VALID,0.290625,
2013-02-21, 02:18:04,VALID,1006.81,VALID,0,VALID,104,VALID,0,VALID,24.0856,VALID,57,VALID,0.506641,
2013-02-21, 02:19:04,VALID,1006.78,VALID,0,VALID,104,VALID,0,VALID,24.1032,VALID,58,VALID,0.612109,
2013-02-21, 02:20:04,VALID,1006.79,VALID,0,VALID,104,VALID,0,VALID,24.1227,VALID,58,VALID,0.277344,
2013-02-21, 02:21:04,VALID,1006.76,VALID,0,VALID,104,VALID,0,VALID,24.1227,VALID,57,VALID,0.349219,
2013-02-21, 02:22:04,VALID,1006.76,VALID,0,VALID,104,VALID,0,VALID,24.1422,VALID,57,VALID,0.457031,
2013-02-21, 02:23:04,VALID,1006.74,VALID,0,VALID,104,VALID,0,VALID,24.1227,VALID,57,VALID,0.421094,
2013-02-21, 02:24:04,VALID,1006.74,VALID,0,VALID,104,VALID,0,VALID,24.1227,VALID,61,VALID,0.5625,
2013-02-21, 02:25:04,VALID,1006.74,VALID,0,VALID,104,VALID,0,VALID,24.1227,VALID,61,VALID,0.119141,
2013-02-21, 02:26:04,VALID,1006.73,VALID,0,VALID,104,VALID,0,VALID,24.1014,VALID,61,VALID,0.282813,
2013-02-21, 02:27:04,VALID,1006.72,VALID,0,VALID,104,VALID,0,VALID,24.1422,VALID,64,VALID,0.549609,
2013-02-21, 02:28:04,VALID,1006.72,VALID,0,VALID,104,VALID,0,VALID,24.1617,VALID,64,VALID,0.366406,
2013-02-21, 02:29:04,VALID,1006.7,VALID,0,VALID,104,VALID,0,VALID,24.1617,VALID,64,VALID,0.223438,
2013-02-21, 02:30:04,VALID,1006.69,VALID,0,VALID,104,VALID,0,VALID,24.1617,VALID,110,VALID,0.618359,
2013-02-21, 02:31:04,VALID,1006.69,VALID,0,VALID,104,VALID,0,VALID,24.1617,VALID,112,VALID,0.375781,
2013-02-21, 02:32:04,VALID,1006.7,VALID,0,VALID,104,VALID,0,VALID,24.1617,VALID,112,VALID,0.344922,
2013-02-21, 02:33:04,VALID,1006.69,VALID,0,VALID,104,VALID,0,VALID,24.1617,VALID,112,VALID,0.412109,
2013-02-21, 02:34:04,VALID,1006.69,VALID,0,VALID,104,VALID,0,VALID,24.1617,VALID,112,VALID,0.292969,
2013-02-21, 02:35:04,VALID,1006.67,VALID,0,VALID,104,VALID,0,VALID,24.1617,VALID,94,VALID,0.847266,
2013-02-21, 02:36:04,VALID,1006.68,VALID,0,VALID,104,VALID,0,VALID,24.1617,VALID,93,VALID,0.521094,
2013-02-21, 02:37:04,VALID,1006.66,VALID,0,VALID,104,VALID,0,VALID,24.1422,VALID,94,VALID,0.537109,
2013-02-21, 02:38:04,VALID,1006.68,VALID,0,VALID,104,VALID,0,VALID,24.1404,VALID,99,VALID,0.61875,
2013-02-21, 02:39:04,VALID,1006.67,VALID,0,VALID,104,VALID,0,VALID,24.1422,VALID,100,VALID,0.585547,
2013-02-21, 02:40:04,VALID,1006.62,VALID,0,VALID,104,VALID,0,VALID,24.1422,VALID,100,VALID,0.511328,
2013-02-21, 02:41:04,VALID,1006.63,VALID,0,VALID,104,VALID,0,VALID,24.1422,VALID,100,VALID,0.592969,
2013-02-21, 02:42:04,VALID,1006.61,VALID,0,VALID,104,VALID,0,VALID,24.1032,VALID,92,VALID,0.873438,
2013-02-21, 02:43:04,VALID,1006.6,VALID,0,VALID,104,VALID,0,VALID,24.1227,VALID,95,VALID,1.04297,
2013-02-21, 02:44:04,VALID,1006.61,VALID,0,VALID,104,VALID,0,VALID,24.0837,VALID,112,VALID,0.673047,
2013-02-21, 02:45:04,VALID,1006.57,VALID,0,VALID,104,VALID,0,VALID,24.1227,VALID,101,VALID,0.860156,
2013-02-21, 02:46:04,VALID,1006.58,VALID,0,VALID,104,VALID,0,VALID,24.1209,VALID,101,VALID,1.01875,
2013-02-21, 02:47:04,VALID,1006.57,VALID,0,VALID,104,VALID,0,VALID,24.1422,VALID,101,VALID,1.02969,
2013-02-21, 02:48:04,VALID,1006.58,VALID,0,VALID,104,VALID,0,VALID,24.1422,VALID,92,VALID,0.935156,
2013-02-21, 02:49:04,VALID,1006.59,VALID,0,VALID,104,VALID,0,VALID,24.1422,VALID,95,VALID,0.836719,
2013-02-21, 02:50:04,VALID,1006.56,VALID,0,VALID,104,VALID,0,VALID,24.1635,VALID,78,VALID,0.519922,
2013-02-21, 02:51:04,VALID,1006.58,VALID,0,VALID,104,VALID,0,VALID,24.1422,VALID,90,VALID,0.893359,
2013-02-21, 02:52:04,VALID,1006.6,VALID,0,VALID,104,VALID,0,VALID,24.1227,VALID,102,VALID,0.864062,
2013-02-21, 02:53:04,VALID,1006.62,VALID,0,VALID,104,VALID,0,VALID,24.1209,VALID,100,VALID,0.679688,
2013-02-21, 02:54:04,VALID,1006.64,VALID,0,VALID,104,VALID,0,VALID,24.1227,VALID,98,VALID,0.571875,
2013-02-21, 02:55:04,VALID,1006.64,VALID,0,VALID,104,VALID,0,VALID,24.1032,VALID,95,VALID,0.165625,
2013-02-21, 02:56:04,VALID,1006.64,VALID,0,VALID,104,VALID,0,VALID,24.1227,VALID,96,VALID,0.561719,
2013-02-21, 02:57:04,VALID,1006.64,VALID,0,VALID,104,VALID,0,VALID,24.1032,VALID,96,VALID,0.637891,
2013-02-21, 02:58:04,VALID,1006.66,VALID,0,VALID,104,VALID,0,VALID,24.1032,VALID,96,VALID,0.66875,
2013-02-21, 02:59:04,VALID,1006.69,VALID,0,VALID,104,VALID,0,VALID,24.1032,VALID,96,VALID,0.460938,
2013-02-21, 03:00:04,VALID,1006.7,VALID,0,VALID,104,VALID,0,VALID,24.1032,VALID,96,VALID,0.171875,
2013-02-21, 03:01:04,VALID,1006.71,VALID,0,VALID,104,VALID,0,VALID,24.1245,VALID,96,VALID,0.234766,
2013-02-21, 03:02:04,VALID,1006.69,VALID,0,VALID,104,VALID,0,VALID,24.1422,VALID,96,VALID,0.620313,
2013-02-21, 03:03:04,VALID,1006.73,VALID,0,VALID,104,VALID,0,VALID,24.1422,VALID,95,VALID,0.319531,
2013-02-21, 03:04:04,VALID,1006.73,VALID,0,VALID,104,VALID,0,VALID,24.1032,VALID,95,VALID,0.147266,
2013-02-21, 03:05:04,VALID,1006.71,VALID,0,VALID,104,VALID,0,VALID,24.0837,VALID,95,VALID,0.467578,
2013-02-21, 03:06:04,VALID,1006.77,VALID,0,VALID,104,VALID,0,VALID,24.0643,VALID,96,VALID,0.417188,
2013-02-21, 03:07:04,VALID,1006.81,VALID,0,VALID,104,VALID,0,VALID,24.0643,VALID,96,VALID,0,
2013-02-21, 03:08:04,VALID,1006.79,VALID,0,VALID,104,VALID,0,VALID,24.0643,VALID,95,VALID,0.233984,
2013-02-21, 03:09:04,VALID,1006.79,VALID,0,VALID,104,VALID,0,VALID,24.0643,VALID,87,VALID,0.324219,
2013-02-21, 03:10:04,VALID,1006.78,VALID,0,VALID,104,VALID,0,VALID,24.0837,VALID,87,VALID,0.165625,
2013-02-21, 03:11:04,VALID,1006.77,VALID,0,VALID,104,VALID,0,VALID,24.0837,VALID,87,VALID,0.405078,
2013-02-21, 03:12:04,VALID,1006.78,VALID,0,VALID,104,VALID,0,VALID,24.1051,VALID,87,VALID,0.622266,
2013-02-21, 03:13:04,VALID,1006.77,VALID,0,VALID,104,VALID,0,VALID,24.1032,VALID,87,VALID,0.369141,
2013-02-21, 03:14:04,VALID,1006.8,VALID,0,VALID,104,VALID,0,VALID,24.1227,VALID,87,VALID,0.220313,
2013-02-21, 03:15:04,VALID,1006.8,VALID,0,VALID,104,VALID,0,VALID,24.1227,VALID,87,VALID,0.170312,
2013-02-21, 03:16:04,VALID,1006.8,VALID,0,VALID,104,VALID,0,VALID,24.1032,VALID,87,VALID,0.244141,
2013-02-21, 03:17:04,VALID,1006.81,VALID,0,VALID,104,VALID,0,VALID,24.0837,VALID,87,VALID,0.144922,
2013-02-21, 03:18:04,VALID,1006.82,VALID,0,VALID,104,VALID,0,VALID,24.1032,VALID,87,VALID,0.221094,
2013-02-21, 03:19:04,VALID,1006.8,VALID,0,VALID,104,VALID,0,VALID,24.0837,VALID,87,VALID,0,
2013-02-21, 03:20:04,VALID,1006.8,VALID,0,VALID,104,VALID,0,VALID,24.0643,VALID,87,VALID,0.305469,
2013-02-21, 03:21:04,VALID,1006.79,VALID,0,VALID,104,VALID,0.112112,VALID,24.0837,VALID,87,VALID,0.372266,
2013-02-21, 03:22:04,VALID,1006.75,VALID,0,VALID,104,VALID,0,VALID,24.0448,VALID,87,VALID,0.426172,
2013-02-21, 03:23:04,VALID,1006.78,VALID,0,VALID,104,VALID,0,VALID,24.0253,VALID,87,VALID,0.565625,
2013-02-21, 03:24:04,VALID,1006.78,VALID,0,VALID,104,VALID,0,VALID,24.0448,VALID,107,VALID,0.691016,
2013-02-21, 03:25:04,VALID,1006.8,VALID,0,VALID,104,VALID,0,VALID,24.0235,VALID,116,VALID,0.359766,
2013-02-21, 03:26:04,VALID,1006.77,VALID,0,VALID,104,VALID,0.112112,VALID,24.0448,VALID,115,VALID,0.458984,
2013-02-21, 03:27:04,VALID,1006.78,VALID,0,VALID,104,VALID,0,VALID,24.0253,VALID,116,VALID,0.372266,
2013-02-21, 03:28:04,VALID,1006.79,VALID,0,VALID,104,VALID,0,VALID,24.0058,VALID,115,VALID,0.416016,
2013-02-21, 03:29:04,VALID,1006.84,VALID,0,VALID,104,VALID,0,VALID,24.0058,VALID,115,VALID,0.320703,
2013-02-21, 03:30:04,VALID,1006.85,VALID,0,VALID,104,VALID,0,VALID,24.0253,VALID,115,VALID,0.392578,
2013-02-21, 03:31:04,VALID,1006.86,VALID,0,VALID,104,VALID,0,VALID,24.0448,VALID,115,VALID,0.175,
2013-02-21, 03:32:04,VALID,1006.87,VALID,0,VALID,104,VALID,0,VALID,24.0448,VALID,116,VALID,0.374219,
2013-02-21, 03:33:04,VALID,1006.91,VALID,0,VALID,104,VALID,0,VALID,24.0448,VALID,115,VALID,0.247656,
2013-02-21, 03:34:04,VALID,1006.95,VALID,0,VALID,104,VALID,0,VALID,24.0253,VALID,116,VALID,0.305859,
2013-02-21, 03:35:04,VALID,1006.95,VALID,0,VALID,104,VALID,0,VALID,24.0466,VALID,115,VALID,0.241797,
2013-02-21, 03:36:04,VALID,1006.96,VALID,0,VALID,104,VALID,0,VALID,24.0058,VALID,116,VALID,0.363672,
2013-02-21, 03:37:04,VALID,1006.94,VALID,0,VALID,104,VALID,0,VALID,24.0058,VALID,115,VALID,0.333594,
2013-02-21, 03:38:04,VALID,1006.95,VALID,0,VALID,104,VALID,0,VALID,24.0058,VALID,115,VALID,0.398828,
2013-02-21, 03:39:04,VALID,1006.95,VALID,0,VALID,104,VALID,0,VALID,24.0058,VALID,115,VALID,0.332031,
2013-02-21, 03:40:04,VALID,1006.96,VALID,0,VALID,104,VALID,0,VALID,24.0076,VALID,115,VALID,0.341797,
2013-02-21, 03:41:04,VALID,1006.95,VALID,0,VALID,104,VALID,0,VALID,23.9863,VALID,115,VALID,0.292969,
2013-02-21, 03:42:04,VALID,1006.92,VALID,0,VALID,104,VALID,0,VALID,23.9668,VALID,115,VALID,0.181641,
2013-02-21, 03:43:04,VALID,1006.94,VALID,0,VALID,104,VALID,0,VALID,23.9668,VALID,116,VALID,0,
2013-02-21, 03:44:04,VALID,1006.95,VALID,0,VALID,104,VALID,0,VALID,23.9668,VALID,115,VALID,0.105859,
2013-02-21, 03:45:04,VALID,1006.94,VALID,0,VALID,104,VALID,0,VALID,23.9668,VALID,116,VALID,0.0761719,
2013-02-21, 03:46:04,VALID,1006.92,VALID,0,VALID,104,VALID,0,VALID,23.9668,VALID,115,VALID,0.0707031,
2013-02-21, 03:47:04,VALID,1006.95,VALID,0,VALID,104,VALID,0,VALID,23.9668,VALID,116,VALID,0,
2013-02-21, 03:48:04,VALID,1006.94,VALID,0,VALID,104,VALID,0,VALID,23.9455,VALID,116,VALID,0,
2013-02-21, 03:49:04,VALID,1006.95,VALID,0,VALID,104,VALID,0,VALID,23.9473,VALID,116,VALID,0,
2013-02-21, 03:50:04,VALID,1006.95,VALID,0,VALID,104,VALID,0,VALID,23.9473,VALID,116,VALID,0,
2013-02-21, 03:51:04,VALID,1006.93,VALID,0,VALID,104,VALID,0,VALID,23.9668,VALID,116,VALID,0,
2013-02-21, 03:52:04,VALID,1006.96,VALID,0,VALID,104,VALID,0,VALID,23.9455,VALID,115,VALID,0,
2013-02-21, 03:53:04,VALID,1006.94,VALID,0,VALID,104,VALID,0,VALID,23.9668,VALID,115,VALID,0,
2013-02-21, 03:54:04,VALID,1006.95,VALID,0,VALID,104,VALID,0,VALID,23.9473,VALID,116,VALID,0,
2013-02-21, 03:55:04,VALID,1006.91,VALID,0,VALID,104,VALID,0,VALID,23.9473,VALID,116,VALID,0,
2013-02-21, 03:56:04,VALID,1006.89,VALID,0,VALID,104,VALID,0,VALID,23.9278,VALID,116,VALID,0,
2013-02-21, 03:57:04,VALID,1006.86,VALID,0,VALID,104,VALID,0,VALID,23.9278,VALID,115,VALID,0.135547,
2013-02-21, 03:58:04,VALID,1006.82,VALID,0,VALID,104,VALID,0,VALID,23.9278,VALID,115,VALID,0.403125,
2013-02-21, 03:59:04,VALID,1006.82,VALID,0,VALID,104,VALID,0,VALID,23.9084,VALID,101,VALID,0.593359,
2013-02-21, 04:00:04,VALID,1006.81,VALID,0,VALID,104,VALID,0,VALID,23.9278,VALID,56,VALID,0.562109,
2013-02-21, 04:01:04,VALID,1006.8,VALID,0,VALID,104,VALID,0,VALID,23.9278,VALID,57,VALID,0.452344,